sat.trackr.live / text

‹ back to catalog

STARLINK-3522

NORAD 51725 · 2022-016M

PAYLOAD ACTIVE UNKNOWN

§ Identity

Operator
Country
US
Launch date
2022-02-21
Launch site
AFETR
Launch vehicle
Mass (kg)
RCS (m²)

Purposes: comms

External: N2YO · Heavens-Above · Gunter

§ Orbital elements

Epoch: 2026-05-24T19:51:17.611488Z

Period
95.44 min
Inclination
53.2147°
Eccentricity
0.0001042
Mean motion
15.08837806 rev/d
Perigee alt
539.0 km
Apogee alt
540.5 km
Semi-major
6,917.9 km
B*
3.9254e-5
RAAN
347.3256°
Arg perigee
88.3824°
Mean anomaly
271.7287°
Rev number
23,491

§ Raw data

STARLINK-35221 51725U 22016M   26144.82728717  .00000337  00000+0  39254-4 0  99992 51725  53.2147 347.3256 0001042  88.3824 271.7287 15.08837806234913

JSON: /api/v1/satellites/51725 · /tle

For live sub-satellite position, see the globe view (requires WebGL).

§ Visibility from observer

Set your observer location to see the next 7 days of passes ≥ 10°. The values pass through the URL so the page stays shareable.

No JS? Fill the form by hand. The geolocation button needs JavaScript.